{"data":{"norad_id":59555,"epoch":"2026-09-21T11:31:14.802816Z","epoch_age_seconds":83583,"freshness":"FRESH","line1":"1 59555U 24074X   26264.48003244 -.00001649  00000+0 -50442-4 0  9991","line2":"2 59555  43.0052 318.1661 0001470 268.7152  91.3531 15.27564203135954","mean_motion":15.27564203,"eccentricity":0.000147,"inclination_deg":43.0052,"raan_deg":318.1661,"arg_perigee_deg":268.7152,"mean_anomaly_deg":91.3531,"bstar":-5.0442e-5,"rev_number":13595,"period_min":94.267723554399,"perigee_km":482.08779703867,"apogee_km":484.10499965779,"semimajor_km":6861.2333983482,"source":"CELESTRAK","updated_at":"2026-09-22T09:00:48.976328Z"}}